Time,TemperatureF,DewpointF,PressureIn,WindDirection,WindDirectionDegrees,WindSpeedMPH,WindSpeedGustMPH,Humidity,HourlyPrecipIn,Conditions,Clouds,dailyrainin,SoftwareType,DateUTC
2013-02-11 00:00:00,33.9,29.9,29.29,SSE,157,0.0,0.0,85,0.00,,,0.00,WUHU21636XXSP,2013-02-11 06:00:00,
2013-02-11 00:05:00,33.9,29.9,29.29,SSE,157,0.0,0.0,85,0.00,,,0.00,WUHU21636XXSP,2013-02-11 06:05:00,
2013-02-11 00:10:00,33.7,29.4,29.30,WSW,247,2.6,2.6,84,0.02,,,0.02,WUHU21636XXSP,2013-02-11 06:10:00,
2013-02-11 00:15:00,33.4,29.1,29.30,WSW,247,0.0,2.6,84,0.02,,,0.02,WUHU21636XXSP,2013-02-11 06:15:00,
2013-02-11 00:20:00,33.2,28.9,29.30,SE,135,0.0,0.0,84,0.02,,,0.02,WUHU21636XXSP,2013-02-11 06:20:00,
2013-02-11 00:25:00,33.0,28.6,29.30,SSE,157,0.0,0.0,84,0.04,,,0.04,WUHU21636XXSP,2013-02-11 06:25:00,
2013-02-11 00:30:00,33.0,28.6,29.30,WSW,247,0.0,0.0,84,0.04,,,0.04,WUHU21636XXSP,2013-02-11 06:30:00,
2013-02-11 00:35:00,33.0,28.6,29.30,West,270,0.0,0.0,84,0.04,,,0.04,WUHU21636XXSP,2013-02-11 06:35:00,
2013-02-11 00:40:00,32.8,28.4,29.30,SSW,202,0.0,0.0,84,0.04,,,0.04,WUHU21636XXSP,2013-02-11 06:40:00,
2013-02-11 00:45:00,32.8,28.4,29.30,WSW,247,0.0,0.0,84,0.04,,,0.04,WUHU21636XXSP,2013-02-11 06:45:00,
2013-02-11 00:50:00,32.7,28.3,29.29,WSW,247,0.0,0.0,84,0.04,,,0.04,WUHU21636XXSP,2013-02-11 06:50:00,
2013-02-11 00:55:00,32.7,28.3,29.29,WSW,247,0.8,0.8,84,0.04,,,0.04,WUHU21636XXSP,2013-02-11 06:55:00,
2013-02-11 01:00:00,32.7,28.3,29.30,ESE,112,0.0,0.8,84,0.04,,,0.04,WUHU21636XXSP,2013-02-11 07:00:00,
2013-02-11 01:05:00,32.4,28.1,29.30,WSW,247,0.0,0.0,84,0.04,,,0.04,WUHU21636XXSP,2013-02-11 07:05:00,
2013-02-11 01:10:00,32.4,28.1,29.30,SW,225,8.8,8.8,84,0.04,,,0.04,WUHU21636XXSP,2013-02-11 07:10:00,
2013-02-11 01:15:00,32.4,28.1,29.30,WSW,247,0.0,8.8,84,0.04,,,0.04,WUHU21636XXSP,2013-02-11 07:15:00,
2013-02-11 01:20:00,32.4,28.1,29.30,West,270,0.0,8.8,84,0.04,,,0.04,WUHU21636XXSP,2013-02-11 07:20:00,
2013-02-11 01:25:00,32.4,28.1,29.30,SW,225,0.0,0.0,84,0.04,,,0.04,WUHU21636XXSP,2013-02-11 07:25:00,
2013-02-11 01:30:00,32.4,28.1,29.30,SW,225,0.0,0.0,84,0.04,,,0.04,WUHU21636XXSP,2013-02-11 07:30:00,
2013-02-11 01:35:00,32.4,28.1,29.30,SW,225,0.0,0.0,84,0.04,,,0.04,WUHU21636XXSP,2013-02-11 07:35:00,
2013-02-11 01:40:00,32.4,28.1,29.30,SW,225,1.2,1.2,84,0.04,,,0.04,WUHU21636XXSP,2013-02-11 07:40:00,
2013-02-11 01:45:00,32.4,28.1,29.30,WNW,292,0.0,1.2,84,0.04,,,0.04,WUHU21636XXSP,2013-02-11 07:45:00,
2013-02-11 01:50:00,32.4,28.1,29.30,SSW,202,0.0,1.2,84,0.04,,,0.04,WUHU21636XXSP,2013-02-11 07:50:00,
2013-02-11 01:55:00,32.7,28.3,29.31,WSW,247,0.0,0.0,84,0.04,,,0.04,WUHU21636XXSP,2013-02-11 07:55:00,
2013-02-11 02:00:00,32.7,28.3,29.31,WSW,247,0.0,0.0,84,0.00,,,0.04,WUHU21636XXSP,2013-02-11 08:00:00,
2013-02-11 02:05:00,32.7,28.3,29.31,South,180,0.0,0.0,84,0.00,,,0.04,WUHU21636XXSP,2013-02-11 08:05:00,
2013-02-11 02:10:00,32.8,28.4,29.31,SW,225,0.0,2.2,84,0.00,,,0.04,WUHU21636XXSP,2013-02-11 08:10:00,
2013-02-11 02:15:00,33.0,28.6,29.31,SW,225,0.0,2.2,84,0.00,,,0.04,WUHU21636XXSP,2013-02-11 08:15:00,
2013-02-11 02:20:00,33.0,28.6,29.31,NW,315,0.0,0.0,84,0.00,,,0.04,WUHU21636XXSP,2013-02-11 08:20:00,
2013-02-11 02:25:00,33.0,28.6,29.31,SSW,202,0.0,0.0,84,0.00,,,0.04,WUHU21636XXSP,2013-02-11 08:25:00,
2013-02-11 02:30:00,33.0,28.6,29.32,WSW,247,0.0,0.0,84,0.00,,,0.04,WUHU21636XXSP,2013-02-11 08:30:00,
2013-02-11 02:35:00,33.0,28.6,29.32,West,270,0.0,0.0,84,0.00,,,0.04,WUHU21636XXSP,2013-02-11 08:35:00,
2013-02-11 02:40:00,33.0,28.6,29.32,West,270,0.0,0.0,84,0.00,,,0.04,WUHU21636XXSP,2013-02-11 08:40:00,
2013-02-11 02:45:00,33.0,28.6,29.33,WSW,247,0.0,0.0,84,0.00,,,0.04,WUHU21636XXSP,2013-02-11 08:45:00,
2013-02-11 02:50:00,33.0,28.6,29.33,SW,225,0.0,0.0,84,0.00,,,0.04,WUHU21636XXSP,2013-02-11 08:50:00,
2013-02-11 02:55:00,33.0,28.6,29.33,West,270,0.0,0.0,84,0.00,,,0.04,WUHU21636XXSP,2013-02-11 08:55:00,
2013-02-11 03:00:00,33.0,28.6,29.34,WSW,247,3.0,3.0,84,0.00,,,0.04,WUHU21636XXSP,2013-02-11 09:00:00,
2013-02-11 03:05:00,33.0,28.6,29.34,SSW,202,0.0,3.0,84,0.00,,,0.04,WUHU21636XXSP,2013-02-11 09:05:00,
2013-02-11 03:10:00,32.8,28.4,29.35,SW,225,0.0,3.0,84,0.00,,,0.04,WUHU21636XXSP,2013-02-11 09:10:00,
2013-02-11 03:15:00,32.7,28.3,29.35,WNW,292,0.0,0.0,84,0.00,,,0.04,WUHU21636XXSP,2013-02-11 09:15:00,
2013-02-11 03:20:00,32.4,28.1,29.35,WNW,292,0.0,0.0,84,0.00,,,0.04,WUHU21636XXSP,2013-02-11 09:20:00,
2013-02-11 03:25:00,32.4,28.1,29.35,SW,225,0.0,6.6,84,0.00,,,0.04,WUHU21636XXSP,2013-02-11 09:25:00,
2013-02-11 03:30:00,32.4,28.1,29.36,West,270,0.0,6.6,84,0.00,,,0.04,WUHU21636XXSP,2013-02-11 09:30:00,
2013-02-11 03:35:00,32.0,27.7,29.36,SW,225,2.2,2.2,84,0.00,,,0.04,WUHU21636XXSP,2013-02-11 09:35:00,
2013-02-11 03:40:00,32.0,27.7,29.36,SW,225,0.4,2.2,84,0.00,,,0.04,WUHU21636XXSP,2013-02-11 09:40:00,
2013-02-11 03:45:00,31.8,27.5,29.36,WNW,292,0.0,0.4,84,0.00,,,0.04,WUHU21636XXSP,2013-02-11 09:45:00,
2013-02-11 03:50:00,31.8,27.5,29.37,WSW,247,0.0,0.0,84,0.00,,,0.04,WUHU21636XXSP,2013-02-11 09:50:00,
2013-02-11 03:55:00,31.8,27.5,29.37,WNW,292,0.0,0.0,84,0.00,,,0.04,WUHU21636XXSP,2013-02-11 09:55:00,
2013-02-11 04:00:00,31.8,27.5,29.37,NW,315,0.0,0.0,84,0.00,,,0.04,WUHU21636XXSP,2013-02-11 10:00:00,
2013-02-11 04:05:00,31.5,27.2,29.38,West,270,0.0,0.0,84,0.00,,,0.04,WUHU21636XXSP,2013-02-11 10:05:00,
2013-02-11 04:10:00,31.5,27.2,29.39,WSW,247,0.0,0.0,84,0.00,,,0.04,WUHU21636XXSP,2013-02-11 10:10:00,
2013-02-11 04:15:00,31.5,27.2,29.39,West,270,0.0,0.0,84,0.00,,,0.04,WUHU21636XXSP,2013-02-11 10:15:00,
2013-02-11 04:20:00,31.3,27.0,29.39,WSW,247,1.6,1.6,84,0.00,,,0.04,WUHU21636XXSP,2013-02-11 10:20:00,
2013-02-11 04:25:00,31.1,26.5,29.40,WSW,247,0.0,1.6,83,0.00,,,0.04,WUHU21636XXSP,2013-02-11 10:25:00,
2013-02-11 04:30:00,31.1,26.5,29.40,West,270,0.0,0.0,83,0.00,,,0.04,WUHU21636XXSP,2013-02-11 10:30:00,
2013-02-11 04:35:00,31.1,26.5,29.41,WSW,247,0.0,0.0,83,0.00,,,0.04,WUHU21636XXSP,2013-02-11 10:35:00,
2013-02-11 04:40:00,31.1,26.5,29.41,WNW,292,0.0,0.0,83,0.00,,,0.04,WUHU21636XXSP,2013-02-11 10:40:00,
2013-02-11 04:45:00,31.1,26.5,29.41,SSE,157,0.0,0.0,83,0.00,,,0.04,WUHU21636XXSP,2013-02-11 10:45:00,
2013-02-11 04:50:00,31.1,26.5,29.42,SW,225,0.0,0.0,83,0.00,,,0.04,WUHU21636XXSP,2013-02-11 10:50:00,
2013-02-11 04:55:00,31.1,26.5,29.43,SW,225,0.0,0.0,83,0.00,,,0.04,WUHU21636XXSP,2013-02-11 10:55:00,
2013-02-11 05:00:00,31.1,26.5,29.43,SW,225,0.0,0.0,83,0.00,,,0.04,WUHU21636XXSP,2013-02-11 11:00:00,
2013-02-11 05:05:00,31.1,26.5,29.43,SW,225,0.0,0.0,83,0.00,,,0.04,WUHU21636XXSP,2013-02-11 11:05:00,
2013-02-11 05:10:00,31.1,26.5,29.44,SW,225,0.0,0.0,83,0.00,,,0.04,WUHU21636XXSP,2013-02-11 11:10:00,
2013-02-11 05:15:00,31.1,26.5,29.44,SW,225,0.0,0.0,83,0.00,,,0.04,WUHU21636XXSP,2013-02-11 11:15:00,
2013-02-11 05:20:00,30.9,26.3,29.44,SW,225,0.0,0.0,83,0.00,,,0.04,WUHU21636XXSP,2013-02-11 11:20:00,
2013-02-11 05:25:00,30.9,26.3,29.45,SW,225,0.0,0.0,83,0.00,,,0.04,WUHU21636XXSP,2013-02-11 11:25:00,
2013-02-11 05:30:00,30.9,26.3,29.45,SW,225,0.0,0.0,83,0.00,,,0.04,WUHU21636XXSP,2013-02-11 11:30:00,
2013-02-11 05:35:00,30.9,26.3,29.46,SW,225,0.0,0.0,83,0.00,,,0.04,WUHU21636XXSP,2013-02-11 11:35:00,
2013-02-11 05:40:00,30.9,26.0,29.46,SW,225,0.0,0.0,82,0.00,,,0.04,WUHU21636XXSP,2013-02-11 11:40:00,
2013-02-11 05:45:00,30.9,26.0,29.47,SW,225,0.0,0.0,82,0.00,,,0.04,WUHU21636XXSP,2013-02-11 11:45:00,
2013-02-11 05:50:00,30.8,25.9,29.47,SW,225,0.0,0.0,82,0.00,,,0.04,WUHU21636XXSP,2013-02-11 11:50:00,
2013-02-11 05:55:00,30.8,25.9,29.48,SW,225,0.0,0.0,82,0.00,,,0.04,WUHU21636XXSP,2013-02-11 11:55:00,
2013-02-11 06:00:00,30.8,25.9,29.47,SW,225,0.0,0.0,82,0.00,,,0.04,WUHU21636XXSP,2013-02-11 12:00:00,
2013-02-11 06:05:00,30.6,25.4,29.48,SW,225,0.0,0.0,81,0.00,,,0.04,WUHU21636XXSP,2013-02-11 12:05:00,
2013-02-11 06:10:00,30.6,25.4,29.49,SW,225,0.0,0.0,81,0.00,,,0.04,WUHU21636XXSP,2013-02-11 12:10:00,
2013-02-11 06:15:00,30.6,25.7,29.49,SW,225,0.0,0.0,82,0.00,,,0.04,WUHU21636XXSP,2013-02-11 12:15:00,
2013-02-11 06:20:00,30.6,25.7,29.49,SW,225,0.0,0.0,82,0.00,,,0.04,WUHU21636XXSP,2013-02-11 12:20:00,
2013-02-11 06:25:00,30.6,25.4,29.50,SW,225,0.0,0.0,81,0.00,,,0.04,WUHU21636XXSP,2013-02-11 12:25:00,
2013-02-11 06:30:00,30.6,25.4,29.50,SW,225,0.0,0.0,81,0.00,,,0.04,WUHU21636XXSP,2013-02-11 12:30:00,
2013-02-11 06:35:00,30.3,25.2,29.50,SW,225,0.0,0.0,81,0.00,,,0.04,WUHU21636XXSP,2013-02-11 12:35:00,
2013-02-11 06:40:00,30.3,25.2,29.51,SW,225,0.0,0.0,81,0.00,,,0.04,WUHU21636XXSP,2013-02-11 12:40:00,
2013-02-11 06:45:00,30.3,25.2,29.51,SW,225,0.0,0.0,81,0.00,,,0.04,WUHU21636XXSP,2013-02-11 12:45:00,
2013-02-11 06:50:00,30.1,25.0,29.51,SW,225,0.0,0.0,81,0.00,,,0.04,WUHU21636XXSP,2013-02-11 12:50:00,
2013-02-11 06:55:00,30.1,25.0,29.52,SW,225,0.0,0.0,81,0.00,,,0.04,WUHU21636XXSP,2013-02-11 12:55:00,
2013-02-11 07:00:00,30.1,25.0,29.52,SW,225,3.0,3.0,81,0.00,,,0.04,WUHU21636XXSP,2013-02-11 13:00:00,
2013-02-11 07:05:00,30.1,25.0,29.53,SW,225,0.0,3.0,81,0.00,,,0.04,WUHU21636XXSP,2013-02-11 13:05:00,
2013-02-11 07:10:00,29.9,24.8,29.53,SW,225,0.0,3.0,81,0.00,,,0.04,WUHU21636XXSP,2013-02-11 13:10:00,
2013-02-11 07:15:00,30.1,25.0,29.53,SW,225,0.0,0.0,81,0.00,,,0.04,WUHU21636XXSP,2013-02-11 13:15:00,
2013-02-11 07:20:00,30.1,25.3,29.54,SW,225,0.0,0.0,82,0.00,,,0.04,WUHU21636XXSP,2013-02-11 13:20:00,
2013-02-11 07:25:00,30.3,25.5,29.55,SW,225,0.0,0.0,82,0.00,,,0.04,WUHU21636XXSP,2013-02-11 13:25:00,
2013-02-11 07:30:00,30.3,25.5,29.55,SW,225,0.0,0.0,82,0.00,,,0.04,WUHU21636XXSP,2013-02-11 13:30:00,
2013-02-11 07:35:00,30.3,25.5,29.56,SW,225,0.0,0.0,82,0.00,,,0.04,WUHU21636XXSP,2013-02-11 13:35:00,
2013-02-11 07:40:00,30.1,25.0,29.56,SW,225,0.0,0.0,81,0.00,,,0.04,WUHU21636XXSP,2013-02-11 13:40:00,
2013-02-11 07:45:00,30.1,25.0,29.56,SW,225,0.0,0.0,81,0.00,,,0.04,WUHU21636XXSP,2013-02-11 13:45:00,
2013-02-11 07:50:00,30.1,24.7,29.57,SW,225,0.0,0.0,80,0.00,,,0.04,WUHU21636XXSP,2013-02-11 13:50:00,
2013-02-11 07:55:00,29.9,24.5,29.57,SW,225,0.0,0.0,80,0.00,,,0.04,WUHU21636XXSP,2013-02-11 13:55:00,
2013-02-11 08:00:00,29.9,24.5,29.58,SW,225,0.0,0.0,80,0.00,,,0.04,WUHU21636XXSP,2013-02-11 14:00:00,
2013-02-11 08:05:00,29.8,24.4,29.58,SW,225,0.0,0.0,80,0.00,,,0.04,WUHU21636XXSP,2013-02-11 14:05:00,
2013-02-11 08:10:00,29.8,24.4,29.58,SW,225,0.0,0.0,80,0.00,,,0.04,WUHU21636XXSP,2013-02-11 14:10:00,
2013-02-11 08:15:00,29.8,24.4,29.58,SW,225,0.0,0.0,80,0.00,,,0.04,WUHU21636XXSP,2013-02-11 14:15:00,
2013-02-11 08:21:00,29.6,23.9,29.59,SW,225,0.0,0.0,79,0.00,,,0.04,WUHU21636XXSP,2013-02-11 14:21:00,
2013-02-11 08:26:00,29.6,23.9,29.59,SW,225,0.0,0.0,79,0.00,,,0.04,WUHU21636XXSP,2013-02-11 14:26:00,
2013-02-11 08:31:00,29.6,23.9,29.60,SW,225,0.0,0.0,79,0.00,,,0.04,WUHU21636XXSP,2013-02-11 14:31:00,
2013-02-11 08:36:00,29.4,23.7,29.60,SW,225,0.0,0.0,79,0.00,,,0.04,WUHU21636XXSP,2013-02-11 14:36:00,
2013-02-11 08:41:00,29.2,23.5,29.60,SW,225,0.0,0.0,79,0.00,,,0.04,WUHU21636XXSP,2013-02-11 14:41:00,
2013-02-11 08:46:00,29.2,23.5,29.60,SW,225,0.0,0.0,79,0.00,,,0.04,WUHU21636XXSP,2013-02-11 14:46:00,
2013-02-11 08:56:00,29.2,23.5,29.62,SW,225,0.0,0.0,79,0.00,,,0.04,WUHU21636XXSP,2013-02-11 14:56:00,
2013-02-11 09:01:00,29.2,23.5,29.62,SW,225,0.0,0.0,79,0.00,,,0.04,WUHU21636XXSP,2013-02-11 15:01:00,
2013-02-11 09:06:00,29.2,23.2,29.62,SW,225,0.0,0.0,78,0.00,,,0.04,WUHU21636XXSP,2013-02-11 15:06:00,
2013-02-11 09:11:00,29.0,23.0,29.62,SW,225,0.0,0.0,78,0.00,,,0.04,WUHU21636XXSP,2013-02-11 15:11:00,
2013-02-11 09:16:00,29.0,22.7,29.62,SW,225,0.0,0.0,77,0.00,,,0.04,WUHU21636XXSP,2013-02-11 15:16:00,
2013-02-11 09:21:00,29.0,22.7,29.63,SW,225,0.0,0.0,77,0.00,,,0.04,WUHU21636XXSP,2013-02-11 15:21:00,
2013-02-11 09:27:00,28.9,22.6,29.63,SW,225,0.0,0.0,77,0.00,,,0.04,WUHU21636XXSP,2013-02-11 15:27:00,
2013-02-11 09:32:00,28.9,22.6,29.63,SW,225,0.0,0.0,77,0.00,,,0.04,WUHU21636XXSP,2013-02-11 15:32:00,
2013-02-11 09:37:00,29.0,22.7,29.64,SW,225,0.0,0.0,77,0.00,,,0.04,WUHU21636XXSP,2013-02-11 15:37:00,
2013-02-11 09:55:00,28.2,21.7,29.66,SW,225,0.0,0.0,76,0.00,,,0.04,WUHU21636XXSP,2013-02-11 15:55:00,
2013-02-11 09:59:00,28.2,21.7,29.66,SW,225,0.0,0.0,76,0.00,,,0.04,WUHU21636XXSP,2013-02-11 15:59:00,
2013-02-11 10:04:00,28.0,21.5,29.66,SW,225,0.0,0.0,76,0.00,,,0.04,WUHU21636XXSP,2013-02-11 16:04:00,
2013-02-11 10:09:00,28.0,21.8,29.67,SW,225,0.0,0.0,77,0.00,,,0.04,WUHU21636XXSP,2013-02-11 16:09:00,
2013-02-11 10:14:00,28.0,21.5,29.67,SW,225,0.0,0.0,76,0.00,,,0.04,WUHU21636XXSP,2013-02-11 16:14:00,
2013-02-11 10:19:00,28.0,21.5,29.68,SW,225,0.0,0.0,76,0.00,,,0.04,WUHU21636XXSP,2013-02-11 16:19:00,
2013-02-11 10:24:00,28.0,21.5,29.68,SW,225,0.0,0.0,76,0.00,,,0.04,WUHU21636XXSP,2013-02-11 16:24:00,
2013-02-11 10:29:00,28.0,21.5,29.68,SW,225,0.0,0.0,76,0.00,,,0.04,WUHU21636XXSP,2013-02-11 16:29:00,
2013-02-11 10:34:00,28.0,21.5,29.68,SW,225,0.0,0.0,76,0.00,,,0.04,WUHU21636XXSP,2013-02-11 16:34:00,
2013-02-11 10:39:00,27.7,20.9,29.69,SW,225,0.0,0.0,75,0.00,,,0.04,WUHU21636XXSP,2013-02-11 16:39:00,
2013-02-11 10:44:00,27.9,21.1,29.69,SW,225,0.0,0.0,75,0.00,,,0.04,WUHU21636XXSP,2013-02-11 16:44:00,
2013-02-11 10:49:00,27.7,21.2,29.70,SW,225,0.0,0.0,76,0.00,,,0.04,WUHU21636XXSP,2013-02-11 16:49:00,
2013-02-11 10:54:00,27.5,20.7,29.70,SW,225,0.0,0.0,75,0.00,,,0.04,WUHU21636XXSP,2013-02-11 16:54:00,
2013-02-11 10:59:00,27.5,20.7,29.70,SW,225,0.0,0.0,75,0.00,,,0.04,WUHU21636XXSP,2013-02-11 16:59:00,
2013-02-11 11:04:00,27.5,20.7,29.71,SW,225,0.0,0.0,75,0.00,,,0.04,WUHU21636XXSP,2013-02-11 17:04:00,
2013-02-11 11:09:00,27.3,20.1,29.72,SW,225,2.2,2.2,74,0.00,,,0.04,WUHU21636XXSP,2013-02-11 17:09:00,
2013-02-11 11:14:00,27.3,20.5,29.72,SW,225,0.0,2.2,75,0.00,,,0.04,WUHU21636XXSP,2013-02-11 17:14:00,
2013-02-11 11:19:00,27.1,19.9,29.73,SW,225,0.0,2.2,74,0.00,,,0.04,WUHU21636XXSP,2013-02-11 17:19:00,
2013-02-11 11:24:00,27.1,19.6,29.73,SW,225,0.0,0.0,73,0.00,,,0.04,WUHU21636XXSP,2013-02-11 17:24:00,
2013-02-11 11:29:00,27.1,19.6,29.73,SW,225,0.0,0.0,73,0.00,,,0.04,WUHU21636XXSP,2013-02-11 17:29:00,
2013-02-11 11:34:00,27.0,19.5,29.73,SW,225,0.0,0.0,73,0.00,,,0.04,WUHU21636XXSP,2013-02-11 17:34:00,
2013-02-11 11:39:00,27.1,19.9,29.74,SW,225,0.0,0.0,74,0.00,,,0.04,WUHU21636XXSP,2013-02-11 17:39:00,
2013-02-11 11:44:00,27.1,19.6,29.73,SW,225,0.0,0.0,73,0.00,,,0.04,WUHU21636XXSP,2013-02-11 17:44:00,
2013-02-11 11:49:00,27.1,19.6,29.74,SW,225,0.0,0.0,73,0.00,,,0.04,WUHU21636XXSP,2013-02-11 17:49:00,
2013-02-11 11:54:00,27.1,19.3,29.74,SW,225,0.0,0.0,72,0.00,,,0.04,WUHU21636XXSP,2013-02-11 17:54:00,
2013-02-11 11:59:00,27.1,19.6,29.74,SW,225,0.0,0.0,73,0.00,,,0.04,WUHU21636XXSP,2013-02-11 17:59:00,
2013-02-11 12:04:00,27.1,19.6,29.74,SW,225,0.0,0.0,73,0.00,,,0.04,WUHU21636XXSP,2013-02-11 18:04:00,
2013-02-11 12:09:00,27.1,19.6,29.75,SW,225,2.6,2.6,73,0.00,,,0.04,WUHU21636XXSP,2013-02-11 18:09:00,
2013-02-11 12:14:00,27.0,19.5,29.75,SW,225,0.0,2.6,73,0.00,,,0.04,WUHU21636XXSP,2013-02-11 18:14:00,
2013-02-11 12:19:00,27.0,19.5,29.75,SW,225,0.0,0.0,73,0.00,,,0.04,WUHU21636XXSP,2013-02-11 18:19:00,
2013-02-11 12:24:00,27.1,19.6,29.76,SW,225,0.0,0.0,73,0.00,,,0.04,WUHU21636XXSP,2013-02-11 18:24:00,
2013-02-11 12:29:00,27.1,19.3,29.76,SW,225,0.0,0.0,72,0.00,,,0.04,WUHU21636XXSP,2013-02-11 18:29:00,
2013-02-11 12:34:00,27.1,19.0,29.76,SW,225,0.0,0.0,71,0.00,,,0.04,WUHU21636XXSP,2013-02-11 18:34:00,
2013-02-11 12:39:00,27.3,19.2,29.76,SW,225,0.0,0.0,71,0.00,,,0.04,WUHU21636XXSP,2013-02-11 18:39:00,
2013-02-11 12:44:00,27.5,19.4,29.77,SW,225,0.0,0.0,71,0.00,,,0.04,WUHU21636XXSP,2013-02-11 18:44:00,
2013-02-11 12:49:00,27.5,19.4,29.77,SW,225,0.0,0.0,71,0.00,,,0.04,WUHU21636XXSP,2013-02-11 18:49:00,
2013-02-11 12:54:00,27.7,19.3,29.77,SW,225,0.0,0.0,70,0.00,,,0.04,WUHU21636XXSP,2013-02-11 18:54:00,
2013-02-11 12:59:00,27.3,18.9,29.77,SW,225,0.0,0.0,70,0.00,,,0.04,WUHU21636XXSP,2013-02-11 18:59:00,
2013-02-11 13:04:00,27.1,19.0,29.77,SW,225,0.0,0.0,71,0.00,,,0.04,WUHU21636XXSP,2013-02-11 19:04:00,
2013-02-11 13:09:00,27.1,19.0,29.78,SW,225,0.0,0.0,71,0.00,,,0.04,WUHU21636XXSP,2013-02-11 19:09:00,
2013-02-11 13:14:00,27.1,19.0,29.78,SW,225,0.0,0.0,71,0.00,,,0.04,WUHU21636XXSP,2013-02-11 19:14:00,
2013-02-11 13:19:00,27.3,19.2,29.78,SW,225,0.0,0.0,71,0.00,,,0.04,WUHU21636XXSP,2013-02-11 19:19:00,
2013-02-11 13:24:00,27.5,19.1,29.78,SW,225,0.0,0.0,70,0.00,,,0.04,WUHU21636XXSP,2013-02-11 19:24:00,
2013-02-11 13:29:00,27.7,19.3,29.79,SW,225,0.0,0.0,70,0.00,,,0.04,WUHU21636XXSP,2013-02-11 19:29:00,
2013-02-11 13:35:00,27.7,19.3,29.79,SW,225,0.0,0.0,70,0.00,,,0.04,WUHU21636XXSP,2013-02-11 19:35:00,
2013-02-11 13:40:00,27.3,18.5,29.79,SW,225,0.0,0.0,69,0.00,,,0.04,WUHU21636XXSP,2013-02-11 19:40:00,
2013-02-11 13:45:00,27.3,18.5,29.80,SW,225,0.0,0.0,69,0.00,,,0.04,WUHU21636XXSP,2013-02-11 19:45:00,
2013-02-11 13:50:00,27.3,18.9,29.80,SW,225,0.0,0.0,70,0.00,,,0.04,WUHU21636XXSP,2013-02-11 19:50:00,
2013-02-11 13:55:00,27.3,18.9,29.80,SW,225,0.0,0.0,70,0.00,,,0.04,WUHU21636XXSP,2013-02-11 19:55:00,
2013-02-11 14:00:00,27.1,18.3,29.80,SW,225,0.0,0.0,69,0.00,,,0.04,WUHU21636XXSP,2013-02-11 20:00:00,
2013-02-11 14:04:00,27.0,18.2,29.80,SW,225,0.0,0.0,69,0.00,,,0.04,WUHU21636XXSP,2013-02-11 20:04:00,
2013-02-11 14:09:00,27.0,18.6,29.81,SW,225,0.8,0.8,70,0.00,,,0.04,WUHU21636XXSP,2013-02-11 20:09:00,
2013-02-11 14:14:00,26.8,18.4,29.81,SW,225,0.0,0.8,70,0.00,,,0.04,WUHU21636XXSP,2013-02-11 20:14:00,
2013-02-11 14:19:00,26.8,18.7,29.81,SW,225,0.0,0.8,71,0.00,,,0.04,WUHU21636XXSP,2013-02-11 20:19:00,
2013-02-11 14:24:00,26.8,18.4,29.81,SW,225,0.0,0.0,70,0.00,,,0.04,WUHU21636XXSP,2013-02-11 20:24:00,
2013-02-11 14:29:00,27.0,18.6,29.81,SW,225,0.0,0.0,70,0.00,,,0.04,WUHU21636XXSP,2013-02-11 20:29:00,
2013-02-11 14:34:00,27.0,18.2,29.81,SW,225,0.0,0.0,69,0.00,,,0.04,WUHU21636XXSP,2013-02-11 20:34:00,
2013-02-11 14:40:00,27.0,18.6,29.82,SW,225,0.0,0.0,70,0.00,,,0.04,WUHU21636XXSP,2013-02-11 20:40:00,
2013-02-11 14:45:00,27.0,18.2,29.81,SW,225,0.0,0.0,69,0.00,,,0.04,WUHU21636XXSP,2013-02-11 20:45:00,
2013-02-11 14:50:00,26.8,18.4,29.82,SW,225,0.0,0.0,70,0.00,,,0.04,WUHU21636XXSP,2013-02-11 20:50:00,
2013-02-11 14:55:00,26.8,18.0,29.82,SW,225,0.0,0.0,69,0.00,,,0.04,WUHU21636XXSP,2013-02-11 20:55:00,
2013-02-11 15:00:00,27.0,18.2,29.82,SW,225,0.0,0.0,69,0.00,,,0.04,WUHU21636XXSP,2013-02-11 21:00:00,
2013-02-11 15:05:00,27.1,18.7,29.82,SW,225,0.0,0.0,70,0.00,,,0.04,WUHU21636XXSP,2013-02-11 21:05:00,
2013-02-11 15:10:00,27.1,18.3,29.82,SW,225,0.0,0.0,69,0.00,,,0.04,WUHU21636XXSP,2013-02-11 21:10:00,
2013-02-11 15:15:00,27.1,18.0,29.83,SW,225,0.0,0.0,68,0.00,,,0.04,WUHU21636XXSP,2013-02-11 21:15:00,
2013-02-11 15:20:00,27.1,18.0,29.83,SW,225,0.0,0.0,68,0.00,,,0.04,WUHU21636XXSP,2013-02-11 21:20:00,
2013-02-11 15:25:00,27.1,18.3,29.84,SW,225,0.0,0.0,69,0.00,,,0.04,WUHU21636XXSP,2013-02-11 21:25:00,
2013-02-11 15:30:00,27.1,18.0,29.84,SW,225,0.0,0.0,68,0.00,,,0.04,WUHU21636XXSP,2013-02-11 21:30:00,
2013-02-11 15:35:00,27.0,17.9,29.84,SW,225,0.0,0.0,68,0.00,,,0.04,WUHU21636XXSP,2013-02-11 21:35:00,
2013-02-11 15:40:00,27.0,17.9,29.84,SW,225,0.0,0.0,68,0.00,,,0.04,WUHU21636XXSP,2013-02-11 21:40:00,
2013-02-11 15:45:00,26.4,17.3,29.85,SW,225,0.0,0.0,68,0.00,,,0.04,WUHU21636XXSP,2013-02-11 21:45:00,
2013-02-11 15:50:00,26.1,17.4,29.86,SW,225,0.0,0.0,69,0.00,,,0.04,WUHU21636XXSP,2013-02-11 21:50:00,
2013-02-11 15:56:00,26.1,17.4,29.86,SW,225,0.0,0.0,69,0.00,,,0.04,WUHU21636XXSP,2013-02-11 21:56:00,
2013-02-11 16:00:00,26.1,17.1,29.87,SW,225,0.0,0.0,68,0.00,,,0.04,WUHU21636XXSP,2013-02-11 22:00:00,
2013-02-11 16:05:00,26.1,17.1,29.87,SW,225,0.0,0.0,68,0.00,,,0.04,WUHU21636XXSP,2013-02-11 22:05:00,
2013-02-11 16:10:00,26.1,17.4,29.87,SW,225,0.0,0.0,69,0.00,,,0.04,WUHU21636XXSP,2013-02-11 22:10:00,
2013-02-11 16:15:00,25.8,16.8,29.87,SW,225,0.0,0.0,68,0.00,,,0.04,WUHU21636XXSP,2013-02-11 22:15:00,
2013-02-11 16:20:00,25.8,17.1,29.87,SW,225,0.0,0.0,69,0.00,,,0.04,WUHU21636XXSP,2013-02-11 22:20:00,
2013-02-11 16:25:00,25.8,17.1,29.88,SW,225,0.0,0.0,69,0.00,,,0.04,WUHU21636XXSP,2013-02-11 22:25:00,
2013-02-11 16:30:00,25.6,16.9,29.88,SW,225,0.0,0.0,69,0.00,,,0.04,WUHU21636XXSP,2013-02-11 22:30:00,
2013-02-11 16:35:00,25.6,16.6,29.88,SW,225,0.0,0.0,68,0.00,,,0.04,WUHU21636XXSP,2013-02-11 22:35:00,
2013-02-11 16:40:00,25.4,16.7,29.89,SW,225,0.0,0.0,69,0.00,,,0.04,WUHU21636XXSP,2013-02-11 22:40:00,
2013-02-11 16:46:00,25.4,17.0,29.89,SW,225,0.0,0.0,70,0.00,,,0.04,WUHU21636XXSP,2013-02-11 22:46:00,
2013-02-11 16:50:00,25.2,16.8,29.89,SW,225,0.0,0.0,70,0.00,,,0.04,WUHU21636XXSP,2013-02-11 22:50:00,
2013-02-11 16:56:00,25.4,17.4,29.89,SW,225,0.0,0.0,71,0.00,,,0.04,WUHU21636XXSP,2013-02-11 22:56:00,
2013-02-11 17:01:00,25.2,16.8,29.89,SW,225,0.0,0.0,70,0.00,,,0.04,WUHU21636XXSP,2013-02-11 23:01:00,
2013-02-11 17:06:00,25.1,16.7,29.89,SW,225,0.0,0.0,70,0.00,,,0.04,WUHU21636XXSP,2013-02-11 23:06:00,
2013-02-11 17:11:00,25.1,17.1,29.90,SW,225,0.0,0.0,71,0.00,,,0.04,WUHU21636XXSP,2013-02-11 23:11:00,
2013-02-11 17:16:00,24.9,16.5,29.90,SW,225,0.0,0.0,70,0.00,,,0.04,WUHU21636XXSP,2013-02-11 23:16:00,
2013-02-11 17:21:00,24.9,16.5,29.90,SW,225,0.0,0.0,70,0.00,,,0.04,WUHU21636XXSP,2013-02-11 23:21:00,
2013-02-11 17:26:00,24.9,16.2,29.90,SW,225,0.0,0.0,69,0.00,,,0.04,WUHU21636XXSP,2013-02-11 23:26:00,
2013-02-11 17:31:00,24.9,16.9,29.91,SW,225,0.0,0.0,71,0.00,,,0.04,WUHU21636XXSP,2013-02-11 23:31:00,
2013-02-11 17:36:00,24.9,17.2,29.90,SW,225,0.0,0.0,72,0.00,,,0.04,WUHU21636XXSP,2013-02-11 23:36:00,
2013-02-11 17:41:00,25.1,17.4,29.91,SW,225,0.0,0.0,72,0.00,,,0.04,WUHU21636XXSP,2013-02-11 23:41:00,
2013-02-11 17:46:00,24.9,17.2,29.91,SW,225,0.0,0.0,72,0.00,,,0.04,WUHU21636XXSP,2013-02-11 23:46:00,
2013-02-11 17:51:00,24.9,17.2,29.91,SW,225,0.0,0.0,72,0.00,,,0.04,WUHU21636XXSP,2013-02-11 23:51:00,
2013-02-11 17:56:00,24.9,17.2,29.91,SW,225,0.0,0.0,72,0.00,,,0.04,WUHU21636XXSP,2013-02-11 23:56:00,
2013-02-11 18:01:00,24.5,16.8,29.92,SW,225,0.0,0.0,72,0.00,,,0.04,WUHU21636XXSP,2013-02-12 00:01:00,
2013-02-11 18:06:00,24.5,16.8,29.92,SW,225,0.0,0.0,72,0.00,,,0.04,WUHU21636XXSP,2013-02-12 00:06:00,
2013-02-11 18:11:00,24.5,16.8,29.92,SW,225,0.0,0.0,72,0.00,,,0.04,WUHU21636XXSP,2013-02-12 00:11:00,
2013-02-11 18:16:00,24.5,16.8,29.92,SW,225,0.0,0.0,72,0.00,,,0.04,WUHU21636XXSP,2013-02-12 00:16:00,
2013-02-11 18:21:00,24.5,16.8,29.93,SW,225,0.0,0.0,72,0.00,,,0.04,WUHU21636XXSP,2013-02-12 00:21:00,
2013-02-11 18:26:00,24.5,16.8,29.93,SW,225,0.0,0.0,72,0.00,,,0.04,WUHU21636XXSP,2013-02-12 00:26:00,
2013-02-11 18:31:00,24.3,16.6,29.93,SW,225,0.0,0.0,72,0.00,,,0.04,WUHU21636XXSP,2013-02-12 00:31:00,
2013-02-11 18:36:00,24.3,16.6,29.93,SW,225,0.0,0.0,72,0.00,,,0.04,WUHU21636XXSP,2013-02-12 00:36:00,
2013-02-11 18:41:00,24.3,16.6,29.94,SW,225,0.0,0.0,72,0.00,,,0.04,WUHU21636XXSP,2013-02-12 00:41:00,
2013-02-11 18:46:00,24.3,16.9,29.93,SW,225,0.0,0.0,73,0.00,,,0.04,WUHU21636XXSP,2013-02-12 00:46:00,
2013-02-11 18:51:00,24.3,16.6,29.94,SW,225,0.0,0.0,72,0.00,,,0.04,WUHU21636XXSP,2013-02-12 00:51:00,
2013-02-11 18:56:00,24.3,16.9,29.94,SW,225,0.0,0.0,73,0.00,,,0.04,WUHU21636XXSP,2013-02-12 00:56:00,
2013-02-11 19:01:00,24.3,16.6,29.94,SW,225,0.0,0.0,72,0.00,,,0.04,WUHU21636XXSP,2013-02-12 01:01:00,
2013-02-11 19:06:00,24.3,16.6,29.94,SW,225,0.0,0.0,72,0.00,,,0.04,WUHU21636XXSP,2013-02-12 01:06:00,
2013-02-11 19:11:00,24.3,16.9,29.94,SW,225,0.0,0.0,73,0.00,,,0.04,WUHU21636XXSP,2013-02-12 01:11:00,
2013-02-11 19:16:00,24.3,16.9,29.95,SW,225,0.0,0.0,73,0.00,,,0.04,WUHU21636XXSP,2013-02-12 01:16:00,
2013-02-11 19:21:00,23.9,16.3,29.95,SW,225,0.0,0.0,72,0.00,,,0.04,WUHU21636XXSP,2013-02-12 01:21:00,
2013-02-11 19:26:00,23.9,16.6,29.95,SW,225,0.0,0.0,73,0.00,,,0.04,WUHU21636XXSP,2013-02-12 01:26:00,
2013-02-11 19:31:00,23.7,16.4,29.96,SW,225,0.0,0.0,73,0.00,,,0.04,WUHU21636XXSP,2013-02-12 01:31:00,
2013-02-11 19:36:00,23.7,16.4,29.96,SW,225,0.0,0.0,73,0.00,,,0.04,WUHU21636XXSP,2013-02-12 01:36:00,
2013-02-11 19:41:00,23.7,16.4,29.96,SW,225,0.0,0.0,73,0.00,,,0.04,WUHU21636XXSP,2013-02-12 01:41:00,
2013-02-11 19:46:00,23.5,16.2,29.96,SW,225,0.0,0.0,73,0.00,,,0.04,WUHU21636XXSP,2013-02-12 01:46:00,
2013-02-11 19:51:00,23.5,16.2,29.96,SW,225,0.0,0.0,73,0.00,,,0.04,WUHU21636XXSP,2013-02-12 01:51:00,
2013-02-11 19:56:00,23.3,16.0,29.96,SW,225,0.0,0.0,73,0.00,,,0.04,WUHU21636XXSP,2013-02-12 01:56:00,
2013-02-11 20:02:00,23.3,16.0,29.96,SW,225,0.0,0.0,73,0.00,,,0.04,WUHU21636XXSP,2013-02-12 02:02:00,
2013-02-11 20:07:00,23.3,16.0,29.96,WSW,247,0.0,0.0,73,0.00,,,0.04,WUHU21636XXSP,2013-02-12 02:07:00,
2013-02-11 20:12:00,23.3,16.0,29.97,West,270,0.0,0.0,73,0.00,,,0.04,WUHU21636XXSP,2013-02-12 02:12:00,
2013-02-11 20:17:00,23.2,15.9,29.97,SSW,202,0.0,0.0,73,0.00,,,0.04,WUHU21636XXSP,2013-02-12 02:17:00,
2013-02-11 20:22:00,23.2,15.9,29.97,SW,225,0.0,0.0,73,0.00,,,0.04,WUHU21636XXSP,2013-02-12 02:22:00,
2013-02-11 20:27:00,23.2,15.9,29.97,WSW,247,0.0,0.0,73,0.00,,,0.04,WUHU21636XXSP,2013-02-12 02:27:00,
2013-02-11 20:32:00,23.0,15.7,29.97,SSW,202,0.0,0.0,73,0.00,,,0.04,WUHU21636XXSP,2013-02-12 02:32:00,
2013-02-11 20:37:00,22.6,15.0,29.97,WSW,247,0.0,0.0,72,0.00,,,0.04,WUHU21636XXSP,2013-02-12 02:37:00,
2013-02-11 20:42:00,22.4,14.7,29.98,West,270,0.0,0.0,72,0.00,,,0.04,WUHU21636XXSP,2013-02-12 02:42:00,
2013-02-11 20:47:00,22.3,15.0,29.98,SW,225,0.0,0.0,73,0.00,,,0.04,WUHU21636XXSP,2013-02-12 02:47:00,
2013-02-11 20:52:00,22.3,15.0,29.97,South,180,0.0,0.0,73,0.00,,,0.04,WUHU21636XXSP,2013-02-12 02:52:00,
2013-02-11 20:57:00,22.3,14.6,29.98,WSW,247,0.0,0.0,72,0.00,,,0.04,WUHU21636XXSP,2013-02-12 02:57:00,
2013-02-11 21:02:00,22.0,14.8,29.98,South,180,0.0,0.0,73,0.00,,,0.04,WUHU21636XXSP,2013-02-12 03:02:00,
2013-02-11 21:07:00,22.0,14.8,29.98,SW,225,0.0,0.0,73,0.00,,,0.04,WUHU21636XXSP,2013-02-12 03:07:00,
2013-02-11 21:12:00,22.0,14.8,29.99,SSW,202,0.0,0.0,73,0.00,,,0.04,WUHU21636XXSP,2013-02-12 03:12:00,
2013-02-11 21:17:00,22.3,14.6,29.98,West,270,0.0,0.0,72,0.00,,,0.04,WUHU21636XXSP,2013-02-12 03:17:00,
2013-02-11 21:22:00,22.0,14.4,29.99,SW,225,0.0,0.0,72,0.00,,,0.04,WUHU21636XXSP,2013-02-12 03:22:00,
2013-02-11 21:27:00,22.0,14.8,29.98,South,180,0.0,0.0,73,0.00,,,0.04,WUHU21636XXSP,2013-02-12 03:27:00,
2013-02-11 21:32:00,22.0,14.4,29.99,SW,225,0.0,0.0,72,0.00,,,0.04,WUHU21636XXSP,2013-02-12 03:32:00,
2013-02-11 21:37:00,21.8,14.2,29.99,SW,225,0.0,0.0,72,0.00,,,0.04,WUHU21636XXSP,2013-02-12 03:37:00,
2013-02-11 21:42:00,22.0,14.8,29.99,SSE,157,0.0,0.0,73,0.00,,,0.04,WUHU21636XXSP,2013-02-12 03:42:00,
2013-02-11 21:46:00,21.8,14.6,29.99,SE,135,0.0,0.0,73,0.00,,,0.04,WUHU21636XXSP,2013-02-12 03:46:00,
2013-02-11 21:52:00,21.8,14.2,29.99,ENE,67,0.0,0.0,72,0.00,,,0.04,WUHU21636XXSP,2013-02-12 03:52:00,
2013-02-11 21:56:00,21.6,14.0,29.99,SW,225,0.0,0.0,72,0.00,,,0.04,WUHU21636XXSP,2013-02-12 03:56:00,
2013-02-11 22:01:00,21.4,13.8,29.99,SSW,202,0.0,0.0,72,0.00,,,0.04,WUHU21636XXSP,2013-02-12 04:01:00,
2013-02-11 22:06:00,21.3,13.4,30.00,SW,225,0.0,0.0,71,0.00,,,0.04,WUHU21636XXSP,2013-02-12 04:06:00,
2013-02-11 22:12:00,21.1,13.2,30.00,SSW,202,0.0,0.0,71,0.00,,,0.04,WUHU21636XXSP,2013-02-12 04:12:00,
2013-02-11 22:17:00,21.1,13.2,30.00,WSW,247,0.0,0.0,71,0.00,,,0.04,WUHU21636XXSP,2013-02-12 04:17:00,
2013-02-11 22:22:00,20.7,12.5,30.00,SW,225,0.0,0.0,70,0.00,,,0.04,WUHU21636XXSP,2013-02-12 04:22:00,
2013-02-11 22:27:00,20.5,12.6,30.00,SW,225,0.0,0.0,71,0.00,,,0.04,WUHU21636XXSP,2013-02-12 04:27:00,
2013-02-11 22:32:00,20.5,12.6,30.01,SW,225,0.0,0.0,71,0.00,,,0.04,WUHU21636XXSP,2013-02-12 04:32:00,
2013-02-11 22:37:00,20.5,12.6,30.01,WNW,292,0.0,0.0,71,0.00,,,0.04,WUHU21636XXSP,2013-02-12 04:37:00,
2013-02-11 22:42:00,20.5,12.6,30.01,SSW,202,0.0,0.0,71,0.00,,,0.04,WUHU21636XXSP,2013-02-12 04:42:00,
2013-02-11 22:47:00,20.2,12.3,30.01,WSW,247,0.0,0.0,71,0.00,,,0.04,WUHU21636XXSP,2013-02-12 04:47:00,
2013-02-11 22:52:00,20.5,12.6,30.00,SW,225,0.0,0.0,71,0.00,,,0.04,WUHU21636XXSP,2013-02-12 04:52:00,
2013-02-11 22:57:00,20.5,12.6,30.00,SSW,202,0.0,0.0,71,0.00,,,0.04,WUHU21636XXSP,2013-02-12 04:57:00,
2013-02-11 23:00:00,20.5,12.6,30.00,SW,225,0.0,0.0,71,0.00,,,0.04,WUHU21636XXSP,2013-02-12 05:00:00,
2013-02-11 23:05:00,20.5,12.6,30.00,SSW,202,0.0,0.0,71,0.00,,,0.04,WUHU21636XXSP,2013-02-12 05:05:00,
2013-02-11 23:10:00,20.7,14.0,30.00,SE,135,0.0,0.0,75,0.00,,,0.04,WUHU21636XXSP,2013-02-12 05:10:00,
2013-02-11 23:15:00,20.7,14.0,30.01,SW,225,0.0,0.0,75,0.00,,,0.04,WUHU21636XXSP,2013-02-12 05:15:00,
2013-02-11 23:20:00,20.7,13.7,30.01,SSE,157,0.0,0.0,74,0.00,,,0.04,WUHU21636XXSP,2013-02-12 05:20:00,
2013-02-11 23:25:00,20.7,13.4,30.01,SW,225,0.0,0.0,73,0.00,,,0.04,WUHU21636XXSP,2013-02-12 05:25:00,
2013-02-11 23:30:00,20.7,13.4,30.01,SSW,202,0.0,0.0,73,0.00,,,0.04,WUHU21636XXSP,2013-02-12 05:30:00,
2013-02-11 23:35:00,20.7,13.4,30.01,SW,225,0.0,0.0,73,0.00,,,0.04,WUHU21636XXSP,2013-02-12 05:35:00,
2013-02-11 23:40:00,20.9,13.6,30.01,South,180,0.0,0.0,73,0.00,,,0.04,WUHU21636XXSP,2013-02-12 05:40:00,
2013-02-11 23:45:00,20.7,13.4,30.02,SW,225,0.0,0.0,73,0.00,,,0.04,WUHU21636XXSP,2013-02-12 05:45:00,
2013-02-11 23:50:00,20.7,12.8,30.01,West,270,0.0,0.0,71,0.00,,,0.04,WUHU21636XXSP,2013-02-12 05:50:00,
2013-02-11 23:55:00,20.4,12.5,30.02,SW,225,0.0,0.0,71,0.00,,,0.04,WUHU21636XXSP,2013-02-12 05:55:00,